sat.trackr.live / text

‹ back to catalog

STARLINK-30914

NORAD 58377 · 2023-178D

PAYLOAD ACTIVE UNKNOWN

§ Identity

Operator
Country
US
Launch date
2023-11-20
Launch site
AFWTR
Launch vehicle
Mass (kg)
RCS (m²)

Purposes: comms

External: N2YO · Heavens-Above · Gunter

§ Orbital elements

Epoch: 2026-09-20T04:30:45.396288Z

Period
93.85 min
Inclination
53.1595°
Eccentricity
0.0000933
Mean motion
15.34395544 rev/d
Perigee alt
462.1 km
Apogee alt
463.4 km
Semi-major
6,840.9 km
B*
5.1316e-5
RAAN
173.1182°
Arg perigee
80.0960°
Mean anomaly
280.0148°
Rev number
15,973

§ Raw data

STARLINK-309141 58377U 23178D   26263.18802542  .00001358  00000+0  51316-4 0  99962 58377  53.1595 173.1182 0000933  80.0960 280.0148 15.34395544159732

JSON: /api/v1/satellites/58377 · /tle

For live sub-satellite position, see the globe view (requires WebGL).

§ Visibility from observer

Set your observer location to see the next 7 days of passes ≥ 10°. The values pass through the URL so the page stays shareable.

No JS? Fill the form by hand. The geolocation button needs JavaScript.